timestamp,wind_dir_avg,wind_spd_avg,wind_spd_max_dir,wind_spd_gust,battery_voltage,lat,long
2023-04-28 00:04:00+00:00,185.0,0.65,175.0,1.23,12.65,47.59359,-54.27349
2023-04-28 00:14:01+00:00,124.0,0.56,137.0,0.98,12.33,47.59359,-54.27349
2023-04-28 00:24:01+00:00,157.0,1.26,147.0,1.72,12.33,47.59359,-54.27349
2023-04-28 00:34:01+00:00,140.0,1.81,137.0,2.29,12.33,47.59359,-54.27349
2023-04-28 00:44:01+00:00,169.0,1.93,174.0,2.04,12.33,47.59359,-54.27349
2023-04-28 00:54:01+00:00,216.0,1.19,211.0,1.4,12.33,47.59359,-54.27349
2023-04-28 01:04:01+00:00,158.0,1.24,155.0,1.5,12.33,47.59359,-54.27349
2023-04-28 01:14:00+00:00,148.0,3.26,151.0,3.9,12.33,47.59359,-54.27349
2023-04-28 01:24:00+00:00,90.0,1.15,113.0,2.11,12.33,47.59359,-54.27349
2023-04-28 01:34:00+00:00,67.0,8.07,68.0,10.09,12.33,47.59359,-54.27349
2023-04-28 01:44:00+00:00,68.0,10.3,70.0,10.72,12.33,47.59359,-54.27349
2023-04-28 01:54:00+00:00,70.0,8.77,73.0,10.43,12.33,47.59359,-54.27349
2023-04-28 02:04:00+00:00,67.0,6.77,73.0,9.64,12.33,47.59359,-54.27349
2023-04-28 02:14:00+00:00,66.0,7.25,71.0,10.0,12.25,47.59359,-54.27349
2023-04-28 02:24:00+00:00,57.0,5.63,68.0,9.08,12.25,47.59359,-54.27349
2023-04-28 02:34:00+00:00,53.0,5.41,62.0,6.92,12.25,47.59359,-54.27349
2023-04-28 02:44:00+00:00,53.0,6.17,62.0,7.87,12.25,47.59359,-54.27349
2023-04-28 02:54:00+00:00,51.0,4.82,52.0,5.31,12.25,47.59359,-54.27349
2023-04-28 03:04:00+00:00,54.0,4.59,47.0,5.2,12.25,47.59359,-54.27349
2023-04-28 03:14:00+00:00,37.0,4.22,40.0,5.02,12.25,47.59359,-54.27349
2023-04-28 03:24:00+00:00,33.0,5.01,36.0,5.75,12.25,47.59359,-54.27349
2023-04-28 03:34:00+00:00,20.0,8.7,22.0,10.12,12.25,47.59359,-54.27349
2023-04-28 03:44:00+00:00,40.0,12.34,42.0,13.65,12.25,47.59359,-54.27349
2023-04-28 03:54:00+00:00,46.0,11.01,46.0,12.94,12.25,47.59359,-54.27349
2023-04-28 04:04:00+00:00,23.0,11.19,39.0,12.74,12.25,47.59359,-54.27349
2023-04-28 04:14:00+00:00,24.0,9.68,23.0,10.55,12.25,47.59359,-54.27349
2023-04-28 04:24:00+00:00,29.0,7.95,51.0,10.0,12.25,47.59359,-54.27349
2023-04-28 04:34:00+00:00,0.0,7.77,20.0,9.63,12.25,47.59359,-54.27349
2023-04-28 04:44:00+00:00,359.0,7.8,19.0,9.46,12.25,47.59359,-54.27349
2023-04-28 04:54:00+00:00,355.0,6.32,344.0,7.43,12.25,47.59359,-54.27349
2023-04-28 05:04:00+00:00,26.0,6.88,27.0,7.46,12.25,47.59359,-54.27349
2023-04-28 05:14:00+00:00,346.0,6.82,346.0,7.68,12.17,47.59359,-54.27349
2023-04-28 05:24:00+00:00,344.0,5.92,348.0,6.66,12.17,47.59359,-54.27349
2023-04-28 05:34:00+00:00,3.0,5.62,1.0,6.78,12.17,47.59359,-54.27349
2023-04-28 05:44:00+00:00,2.0,6.16,2.0,7.03,12.17,47.59359,-54.27349
2023-04-28 05:54:00+00:00,6.0,4.26,8.0,5.23,12.17,47.59359,-54.27349
2023-04-28 06:04:00+00:00,3.0,5.63,344.0,6.42,12.17,47.59359,-54.27349
2023-04-28 06:14:00+00:00,0.0,6.2,356.0,6.85,12.17,47.59359,-54.27349
2023-04-28 06:24:00+00:00,0.0,7.13,3.0,8.51,12.17,47.59359,-54.27349
2023-04-28 06:34:00+00:00,353.0,7.52,354.0,9.04,12.17,47.59359,-54.27349
2023-04-28 06:44:00+00:00,351.0,7.01,355.0,7.9,12.17,47.59359,-54.27349
2023-04-28 06:54:00+00:00,352.0,6.59,3.0,8.69,12.17,47.59359,-54.27349
2023-04-28 07:04:00+00:00,350.0,6.24,343.0,7.17,12.17,47.59359,-54.27349
2023-04-28 07:14:01+00:00,10.0,7.26,10.0,8.33,12.17,47.59359,-54.27349
2023-04-28 07:24:01+00:00,350.0,6.52,20.0,8.14,12.17,47.59359,-54.27349
2023-04-28 07:34:01+00:00,354.0,6.93,348.0,8.45,12.17,47.59359,-54.27349
2023-04-28 07:44:01+00:00,346.0,6.63,346.0,7.52,12.17,47.59359,-54.27349
2023-04-28 07:54:01+00:00,349.0,7.15,348.0,8.62,12.17,47.59359,-54.27349
2023-04-28 08:04:01+00:00,3.0,6.04,4.0,6.73,12.17,47.59359,-54.27349
2023-04-28 08:14:00+00:00,355.0,6.49,14.0,7.75,12.09,47.59359,-54.27349
2023-04-28 08:24:00+00:00,353.0,6.68,347.0,7.82,12.09,47.59359,-54.27349
2023-04-28 08:34:00+00:00,355.0,6.82,19.0,8.22,12.09,47.59359,-54.27349
2023-04-28 08:44:00+00:00,357.0,6.53,348.0,7.92,12.09,47.59359,-54.27349
2023-04-28 08:54:00+00:00,14.0,7.12,23.0,8.44,12.09,47.59359,-54.27349
2023-04-28 09:04:00+00:00,359.0,6.98,4.0,8.39,12.09,47.59359,-54.27349
2023-04-28 09:14:01+00:00,1.0,7.48,359.0,8.6,12.09,47.59359,-54.27349
2023-04-28 09:24:01+00:00,350.0,8.04,355.0,9.51,12.09,47.59359,-54.27349
2023-04-28 09:34:01+00:00,359.0,8.5,3.0,10.55,12.09,47.59359,-54.27349
2023-04-28 09:44:01+00:00,1.0,8.41,347.0,9.52,12.09,47.59359,-54.27349
2023-04-28 09:54:01+00:00,357.0,8.31,345.0,9.48,12.09,47.59359,-54.27349
2023-04-28 10:04:01+00:00,355.0,7.46,0.0,9.46,12.09,47.59359,-54.27349
2023-04-28 10:14:00+00:00,2.0,8.24,17.0,10.06,12.65,47.59359,-54.27349
2023-04-28 10:24:00+00:00,9.0,6.83,21.0,7.93,12.65,47.59359,-54.27349
2023-04-28 10:34:00+00:00,12.0,6.51,28.0,7.73,12.65,47.59359,-54.27349
2023-04-28 10:44:00+00:00,8.0,6.2,23.0,7.12,12.65,47.59359,-54.27349
2023-04-28 10:54:00+00:00,25.0,7.82,24.0,8.77,12.65,47.59359,-54.27349
2023-04-28 11:04:00+00:00,25.0,6.18,32.0,7.93,12.65,47.59359,-54.27349
2023-04-28 11:14:00+00:00,25.0,6.56,31.0,7.13,13.53,47.59359,-54.27349
2023-04-28 11:24:00+00:00,24.0,5.95,30.0,6.96,13.53,47.59359,-54.27349
2023-04-28 11:34:00+00:00,38.0,9.77,48.0,12.72,13.53,47.59359,-54.27349
2023-04-28 11:44:00+00:00,34.0,8.15,46.0,9.86,13.53,47.59359,-54.27349
2023-04-28 11:54:00+00:00,33.0,7.35,43.0,9.02,13.53,47.59359,-54.27349
2023-04-28 12:04:00+00:00,31.0,8.06,38.0,9.57,13.53,47.59359,-54.27349
2023-04-28 12:14:00+00:00,44.0,6.11,50.0,7.44,13.68,47.59359,-54.27349
2023-04-28 12:24:00+00:00,359.0,7.53,359.0,9.15,13.68,47.59359,-54.27349
2023-04-28 12:34:00+00:00,28.0,7.01,24.0,7.77,13.68,47.59359,-54.27349
2023-04-28 12:44:00+00:00,27.0,7.28,25.0,8.1,13.68,47.59359,-54.27349
2023-04-28 12:54:00+00:00,20.0,4.88,26.0,5.93,13.68,47.59359,-54.27349
2023-04-28 13:04:00+00:00,28.0,7.65,26.0,8.47,13.68,47.59359,-54.27349
2023-04-28 13:14:00+00:00,32.0,8.64,31.0,9.65,13.53,47.59359,-54.27349
2023-04-28 13:24:00+00:00,37.0,7.93,41.0,8.81,13.53,47.59359,-54.27349
2023-04-28 13:34:00+00:00,43.0,8.9,52.0,10.63,13.53,47.59359,-54.27349
2023-04-28 13:44:00+00:00,40.0,7.12,37.0,7.87,13.53,47.59359,-54.27349
2023-04-28 13:54:00+00:00,43.0,6.32,47.0,6.94,13.53,47.59359,-54.27349
2023-04-28 14:04:00+00:00,46.0,6.11,54.0,7.6,13.53,47.59359,-54.27349
2023-04-28 14:14:00+00:00,42.0,7.07,58.0,8.87,14.24,47.59359,-54.27349
2023-04-28 14:24:00+00:00,50.0,5.59,53.0,6.18,14.24,47.59359,-54.27349
2023-04-28 14:34:00+00:00,56.0,3.96,53.0,4.45,14.24,47.59359,-54.27349
2023-04-28 14:44:00+00:00,57.0,3.07,53.0,3.67,14.24,47.59359,-54.27349
2023-04-28 14:54:00+00:00,46.0,4.79,43.0,5.23,14.24,47.59359,-54.27349
2023-04-28 15:04:00+00:00,51.0,4.99,49.0,5.73,14.24,47.59359,-54.27349
2023-04-28 15:14:00+00:00,46.0,6.16,47.0,6.59,13.68,47.59359,-54.27349
2023-04-28 15:24:00+00:00,43.0,6.53,41.0,7.06,13.68,47.59359,-54.27349
2023-04-28 15:34:00+00:00,46.0,6.29,47.0,6.73,13.68,47.59359,-54.27349
2023-04-28 15:44:00+00:00,47.0,6.53,44.0,7.73,13.68,47.59359,-54.27349
2023-04-28 15:54:00+00:00,50.0,5.89,50.0,6.43,13.68,47.59359,-54.27349
2023-04-28 16:04:00+00:00,48.0,6.02,50.0,6.55,13.68,47.59359,-54.27349
2023-04-28 16:14:00+00:00,53.0,6.33,57.0,7.08,13.68,47.59359,-54.27349
2023-04-28 16:24:00+00:00,38.0,5.75,37.0,6.47,13.68,47.59359,-54.27349
2023-04-28 16:34:00+00:00,48.0,6.52,61.0,9.17,13.68,47.59359,-54.27349
2023-04-28 16:44:00+00:00,62.0,9.25,65.0,10.6,13.68,47.59359,-54.27349
2023-04-28 16:54:00+00:00,52.0,7.78,49.0,8.76,13.68,47.59359,-54.27349
2023-04-28 17:04:00+00:00,60.0,7.75,70.0,9.67,13.68,47.59359,-54.27349
2023-04-28 17:14:00+00:00,63.0,8.71,67.0,10.49,13.76,47.59359,-54.27349
2023-04-28 17:24:00+00:00,54.0,6.56,55.0,7.88,13.76,47.59359,-54.27349
2023-04-28 17:34:00+00:00,50.0,6.19,49.0,6.94,13.76,47.59359,-54.27349
2023-04-28 17:44:00+00:00,50.0,5.76,48.0,6.49,13.76,47.59359,-54.27349
2023-04-28 17:54:00+00:00,44.0,7.03,50.0,8.28,13.76,47.59359,-54.27349
2023-04-28 18:04:00+00:00,19.0,6.95,19.0,7.66,13.76,47.59359,-54.27349
2023-04-28 18:14:00+00:00,21.0,6.01,16.0,7.12,13.6,47.59359,-54.27349
2023-04-28 18:24:00+00:00,24.0,12.61,31.0,14.53,13.6,47.59359,-54.27349
2023-04-28 18:34:00+00:00,10.0,6.45,12.0,7.07,13.6,47.59359,-54.27349
2023-04-28 18:44:00+00:00,37.0,6.22,36.0,7.11,13.6,47.59359,-54.27349
2023-04-28 18:54:00+00:00,44.0,8.02,46.0,8.97,13.6,47.59359,-54.27349
2023-04-28 19:04:00+00:00,49.0,7.47,47.0,8.95,13.6,47.59359,-54.27349
2023-04-28 19:14:01+00:00,17.0,10.03,12.0,10.94,13.6,47.59359,-54.27349
2023-04-28 19:24:01+00:00,19.0,8.34,15.0,9.27,13.6,47.59359,-54.27349
2023-04-28 19:34:01+00:00,24.0,8.14,27.0,9.0,13.6,47.59359,-54.27349
2023-04-28 19:44:01+00:00,21.0,9.24,21.0,10.5,13.6,47.59359,-54.27349
2023-04-28 19:54:01+00:00,14.0,8.26,17.0,9.34,13.6,47.59359,-54.27349
2023-04-28 20:04:01+00:00,29.0,8.54,33.0,10.39,13.6,47.59359,-54.27349
2023-04-28 20:14:00+00:00,10.0,7.51,9.0,8.84,13.68,47.59359,-54.27349
2023-04-28 20:24:00+00:00,25.0,8.68,27.0,10.25,13.68,47.59359,-54.27349
2023-04-28 20:34:00+00:00,18.0,9.74,21.0,10.98,13.68,47.59359,-54.27349
2023-04-28 20:44:00+00:00,16.0,8.63,19.0,9.61,13.68,47.59359,-54.27349
2023-04-28 20:54:00+00:00,18.0,9.16,17.0,10.49,13.68,47.59359,-54.27349
2023-04-28 21:04:00+00:00,18.0,9.05,21.0,10.05,13.68,47.59359,-54.27349
2023-04-28 21:14:01+00:00,14.0,7.15,20.0,8.13,13.53,47.59359,-54.27349
2023-04-28 21:24:01+00:00,16.0,7.39,23.0,8.86,13.53,47.59359,-54.27349
2023-04-28 21:34:01+00:00,25.0,8.52,28.0,10.26,13.53,47.59359,-54.27349
2023-04-28 21:44:01+00:00,18.0,10.81,18.0,12.5,13.53,47.59359,-54.27349
2023-04-28 21:54:01+00:00,21.0,9.77,21.0,11.09,13.53,47.59359,-54.27349
2023-04-28 22:04:01+00:00,18.0,11.45,16.0,13.46,13.53,47.59359,-54.27349
2023-04-28 22:14:01+00:00,23.0,10.91,20.0,13.92,13.13,47.59359,-54.27349
2023-04-28 22:24:01+00:00,14.0,9.35,8.0,11.56,13.13,47.59359,-54.27349
2023-04-28 22:34:01+00:00,0.0,8.77,358.0,10.41,13.13,47.59359,-54.27349
2023-04-28 22:44:01+00:00,3.0,8.4,4.0,10.05,13.13,47.59359,-54.27349
2023-04-28 22:54:01+00:00,5.0,9.89,1.0,11.36,13.13,47.59359,-54.27349
2023-04-28 23:04:01+00:00,16.0,10.61,11.0,12.73,13.13,47.59359,-54.27349
2023-04-28 23:14:00+00:00,6.0,8.47,1.0,9.55,12.57,47.59359,-54.27349
2023-04-28 23:24:00+00:00,8.0,6.57,13.0,7.95,12.57,47.59359,-54.27349
2023-04-28 23:34:00+00:00,8.0,7.33,19.0,9.27,12.57,47.59359,-54.27349
2023-04-28 23:44:00+00:00,358.0,9.73,358.0,10.64,12.57,47.59359,-54.27349
2023-04-28 23:54:00+00:00,356.0,9.42,358.0,10.48,12.57,47.59359,-54.27349
